Погода в Константиновске

Погода в Константиновске : погода сейчас, прогноз погоды и архив. Всё, что Вы хотите узнать о погоде в Константиновске!

Поиск расширенной информации на нашем сайте:

Другие новости

Новости СМИ2

Главная страница сайта

Новости сайта

03.07.2017

Напоминаем, что на нашем специализированном сайте Метеоцентр.Азия вы можете получить высокодетализированные автоматические прогнозы погоды по пунктам России, СНГ и мира в авиационном формате (включающие направление и скорость ветра, видимость, явления погоды, количество и форму облачности, нижнюю и верхнюю границу облачности).


Погода в Константиновске - сегодня

Время (UTC), дата Ветер
(°,м/с) 
Видим.   Явления Облачность Т
(°С)
Тd
(°С)
f(%) Тe
(°С)
Pmin
(гПа)
dP
(гПа)
Po
(мм)
O2
(г/м3)
Тmin Tmax R s Состояние
почвы
09 20.07.18 240 (ЮЗ) 10 км    8/8 600 м 
[Cu Sc]
+25.4 +18 64 +40  1004.2  -0.4  748  272           
12 20.07.18 260 (З) 2{14}  10 км  гроза без осадков  10/10 600 м кучево-дожд. 
[Cb calv]
+19.5 +16.9 85 +33  1004.7  0.3  748  278           
15 20.07.18 260 (З) 10 км  {гроза, ливн. осадки}  10/10 600 м 
[Cu Sc]
+24 +16.3 62 +35  1004.5  -0.1  748  274    +27.2  0.5     
18 20.07.18 180 (Ю) 4000 м  дымка{гроза, ливн. осадки}  8/6 600 м средняя 
[Cu Sc|Ac trans]
+19.9 +18.1 89 +36  1004.9  0.3  748  277           
21 20.07.18 270 (З) 4000 м  дымка  4/3 600 м средняя 
[Cu med, cong|Ac trans]
+20 +17.6 86 +34  1005.2  0.3  749  277           
00 21.07.18 230 (ЮЗ) 4000 м  дымка  ясно 
+19.1 +17.9 93 +35  1005.2  749  278           
03 21.07.18 250 (З) 4000 м  дымка  ясно 
+19.3 +18 92 +35  1005.5  0.3  749  278  +18.7        влажная 
06 21.07.18 240 (ЮЗ) 10 км    8/6 600 м средняя 
[Cu med, cong|Ac trans]
+24.5 +19.5 74 +42  1006.1  0.7  749  272           
09 21.07.18 360 (С) 10 км    10/8 600 м кучево-дожд., средняя 
[Cb calv|Ac As]
+25.6 +19.3 68 +43  1005.5  -0.6  749  271           
12 21.07.18 230 (ЮЗ) 10 км  {гроза, ливн. осадки}  8/6 600 м средняя 
[Cu med, cong|Ac trans]
+29 +17.3 49 +42  1005.2  -0.1  749  269           
15 21.07.18 220 (ЮЗ) 10 км    8/6 600 м средняя 
[Cu Sc|Ac trans]
+27.5 +17.9 56 +42  1005.5  0.2  749  270    +29.7     
18 21.07.18 240 (ЮЗ) 10 км    9/8 600 м кучево-дожд., средняя 
[Cb calv|Ac trans]
+24.1 +17.5 67 +37  1006.1  0.6  749  274           
21 21.07.18 230 (ЮЗ) 10 км    8/0 средняя 
[Ac trans]
+22.9 +18.2 75 +38  1006.4  0.2  749  274           
00 22.07.18 210 (ЮЗ) 10 км    ясно 
+19.9 +18 89 +35  1005.9  -0.5  749  277           
03 22.07.18 220 (ЮЗ) 10 км    8/8 600 м 
[Cu Sc]
+21.3 +18.9 86 +38  1006.2  0.2  749  276  +19.9        влажная 
06 22.07.18 230 (ЮЗ) 10 км    10/8 600 м средняя 
[Cu Sc|Ac As]
+24.4 +21.1 82 +46  1006.3  0.2  749  272           
09 22.07.18 150 (ЮВ) 10 км  {гроза, ливн. осадки}  10/6 600 м кучево-дожд., средняя 
[Cb calv|Ac As]
+26.1 +18.4 63 +41  1005.4  -0.8  749  271           
12 22.07.18 210 (ЮЗ) 10 км  в посл. час ливневой дождь{гроза}  10/8 600 м кучево-дожд., средняя 
[Cb calv|Ac As]
+22 +19 83 +38  1006  0.4  749  275           
15 22.07.18 230 (ЮЗ) 10 км    8/0 средняя, верхняя 
[Ac trans|Ci sp]
+25.3 +19.8 72 +44  1005.3  -0.5  749  271    +26.9     
18 22.07.18 210 (ЮЗ) 10 км    5/0 верхняя 
[Ci sp]
+22.4 +19.4 83 +40  1005.9  0.4  749  274           
21 22.07.18 220 (ЮЗ) 4000 м  дымка  4/0 верхняя 
[Ci fib]
+21.2 +19.2 88 +38  1006.3  0.5  749  276           
00 23.07.18 250 (З) 4000 м  дымка  6/0 верхняя 
[Ci sp]
+19.6 +18.2 92 +36  1005.9  -0.5  749  277           
03 23.07.18 190 (Ю) 4000 м  дымка  5/0 верхняя 
[Ci sp]
+19.1 +17.8 92 +35  1006  0.1  749  278  +18.7         
06 23.07.18 240 (ЮЗ) 10 км    10/0 средняя 
[Ac As]
+23.3 +19.8 81 +42  1006.7  0.8  750  274           
09 23.07.18 220 (ЮЗ) 10 км    6/4 600 м верхняя 
[Cu med, cong|Ci sp]
+28.2 +19.6 60 +46  1005.9  -0.7  749  269           
Время (UTC), дата Ветер
(°,м/с) 
Видим.   Явления Облачность Т
(°С)
Тd
(°С)
f(%) Тe
(°С)
Pmin
(гПа)
dP
(гПа)
Po
(мм)
O2
(г/м3)
Тmin Tmax R s Состояние
почвы

Для получения пояснительной информации подведите курсор к названию столбца.

ПОГОДА в Константиновске - архив

Всё, что Вы хотите узнать о погоде в Константиновске - удобно и подробно!

Выберите нужную дату (начиная с 1 января 2015* года) и нажмите кнопку "Найти".
Будут отображены архивные сводки погоды по пункту Константиновск, начиная с указанной даты.


Отображать данные в формате CSV (для использования в таблицах Excel)


Внимание! Наш архив погоды предназначен исключительно для личного некоммерческого использования в познавательных целях. Если Вам необходимы официальные справки о состоянии погоды (для производственных, юридических, коммерческих и т.п. целей), обращайтесь в органы Росгидромета.

*Примечание: данная дата относится к архиву по метеостанциям СССР (Россия, СНГ, Балтия).
Архив по метеостанциям Зарубежной Европы и Азии (кроме Китая) хранится 10 дней, по другим регионам земного шара (Китай, Африка, Америка, Австралия, Океания) - 1 день.

Константиновск - район местоположения метеостанции


Название, широта, долгота, высота метеостанции:
Константиновск 47.6°ш. 41.1°д. 66 м над ур. моря [Российская Федерация]

Дополнительная информация

В oтличие oт бoльшинства пoгoдных сайтoв мы публикуем пoдрoбную метеoинфoрмацию в детальнoм прoфессиoнальнoм фoрмате.

Характеристики температуры и влажнoсти вoздуха измеряются на высoте 2 м в тени вдали oт зданий и деревьев.
Скoрoсть ветра измеряется на высoте 10 м (на урoвне рoста челoвека скoрoсть ветра ниже в 1.5-2 раза). Если метеoстанция нахoдится в гoрoде или в лесу, тo скoрoсть ветра занижена на 2-4 м/с пo сравнению с oткрытым местoм. Скoрoсть ветра над акватoриями крупных рек и oзёр, а также на вершинах хoлмoв на 2-5 м/с выше, чем в oбычных услoвиях.
Атмoсфернoе давление в разных тoчках местнoсти мoжет значительнo oтличаться oт давления на метеoстанции, в зависимoсти oт услoвий рельефа (при пoдъёме на 10 м давление пoнижается примернo на 1 мм рт.ст.).